DW4847 Weather Reports


Display with metric or nautical units.
time (UTC)temp
F
wind
direction
speed
MPH
gust
MPH
rain 1hr
in
rain 24hr
in
rain mn
in
humidity
%
barometer
mb
20260506001531 69 115 0.0 1.0 0.00 0.00 0.00 53 1007.5
20260506001045 70 39 0.0 2.0 0.00 0.00 0.00 53 1007.3
20260506000557 70 39 1.0 3.0 0.00 0.00 0.00 52 1007.3
20260506000041 70 294 0.0 3.0 0.00 0.00 0.00 52 1007.3
20260505235535 70 304 0.0 4.0 0.00 0.00 0.00 50 1007.2
20260505235050 71 304 0.0 4.0 0.00 0.00 0.00 51 1007.0
20260505234534 71 219 0.0 2.0 0.00 0.00 0.00 50 1006.9
20260505234048 71 219 0.0 2.0 0.00 0.00 0.00 50 1006.9
20260505233534 71 192 0.0 4.0 0.00 0.00 0.00 48 1006.8
20260505233029 72 157 1.0 3.0 0.00 0.00 0.00 49 1006.7
20260505232535 72 178 1.0 2.0 0.00 0.00 0.00 47 1006.6
20260505232049 72 178 0.0 2.0 0.00 0.00 0.00 47 1006.6
20260505231537 72 178 1.0 3.0 0.00 0.00 0.00 48 1006.5
20260505231023 72 181 0.0 3.0 0.00 0.00 0.00 47 1006.4
20260505230537 73 221 1.0 3.0 0.00 0.00 0.00 46 1006.3
20260505230048 73 191 0.0 2.0 0.00 0.00 0.00 46 1006.2
20260505225542 73 192 1.0 5.0 0.00 0.00 0.00 46 1006.2
20260505225025 73 114 3.0 5.0 0.00 0.00 0.00 44 1006.1
20260505224540 73 181 0.0 4.0 0.00 0.00 0.00 45 1006.0
20260505224026 74 180 1.0 5.0 0.00 0.00 0.00 44 1006.0
20260505223539 74 151 3.0 7.0 0.00 0.00 0.00 43 1006.0
20260505223053 74 149 3.0 7.0 0.00 0.00 0.00 43 1006.0
20260505222547 74 151 2.0 7.0 0.00 0.00 0.00 43 1005.9
20260505222033 74 212 4.0 7.0 0.00 0.00 0.00 43 1005.7
20260505221530 75 146 2.0 4.0 0.00 0.00 0.00 43 1005.7
20260505221035 75 140 1.0 13.0 0.00 0.00 0.00 43 1005.8
20260505220529 75 175 3.0 13.0 0.00 0.00 0.00 43 1005.7
20260505220045 75 246 2.0 5.0 0.00 0.00 0.00 44 1005.7
20260505215529 75 159 0.0 6.0 0.00 0.00 0.00 43 1005.6
20260505215043 75 76 3.0 14.0 0.00 0.00 0.00 42 1005.6
20260505214529 76 171 3.0 14.0 0.00 0.00 0.00 41 1005.6
20260505214043 76 147 3.0 7.0 0.00 0.00 0.00 40 1005.6
20260505213526 76 146 1.0 8.0 0.00 0.00 0.00 40 1005.7
20260505213039 76 112 4.0 7.0 0.00 0.00 0.00 38 1005.6
20260505212554 77 190 2.0 7.0 0.00 0.00 0.00 38 1005.4
20260505212028 77 179 3.0 9.0 0.00 0.00 0.00 36 1005.3
20260505211532 77 231 3.0 9.0 0.00 0.00 0.00 36 1005.2
20260505211047 78 168 4.0 9.0 0.00 0.00 0.00 35 1005.2
20260505210541 78 169 4.0 9.0 0.00 0.00 0.00 36 1005.2
20260505210026 78 96 3.0 9.0 0.00 0.00 0.00 36 1005.3
20260505205539 78 175 4.0 7.0 0.00 0.00 0.00 35 1005.6
20260505205034 78 163 3.0 8.0 0.00 0.00 0.00 35 1005.7
20260505204539 78 187 3.0 9.0 0.00 0.00 0.00 36 1005.7
20260505204034 78 180 4.0 8.0 0.00 0.00 0.00 36 1005.7
20260505203549 78 209 5.0 9.0 0.00 0.00 0.00 36 1005.5
20260505203033 78 225 3.0 7.0 0.00 0.00 0.00 36 1005.6
20260505202546 78 212 3.0 7.0 0.00 0.00 0.00 35 1005.4
20260505202059 78 136 4.0 7.0 0.00 0.00 0.00 36 1005.4
20260505201544 78 288 2.0 10.0 0.00 0.00 0.00 37 1005.3
20260505201106 78 178 3.0 10.0 0.00 0.00 0.00 38 1005.3
20260505200544 78 135 2.0 8.0 0.00 0.00 0.00 37 1005.4
20260505200056 78 196 2.0 9.0 0.00 0.00 0.00 39 1005.6
20260505195527 77 140 4.0 10.0 0.00 0.00 0.00 37 1005.5
20260505195040 77 179 3.0 10.0 0.00 0.00 0.00 38 1005.7
20260505194544 78 204 6.0 10.0 0.00 0.00 0.00 37 1005.9
20260505194036 78 192 6.0 10.0 0.00 0.00 0.00 36 1005.7
20260505193550 79 220 2.0 10.0 0.00 0.00 0.00 37 1005.8
20260505193042 79 107 6.0 10.0 0.00 0.00 0.00 35 1005.9
20260505192527 79 257 4.0 8.0 0.00 0.00 0.00 35 1005.9
20260505192041 79 217 2.0 7.0 0.00 0.00 0.00 36 1005.8
20260505191526 79 171 5.0 7.0 0.00 0.00 0.00 35 1005.9
20260505191040 78 309 3.0 12.0 0.00 0.00 0.00 37 1005.9
20260505190524 78 225 5.0 12.0 0.00 0.00 0.00 35 1005.9
20260505190036 78 103 2.0 12.0 0.00 0.00 0.00 37 1006.2
20260505185530 78 155 4.0 8.0 0.00 0.00 0.00 36 1006.2
20260505185036 78 142 3.0 7.0 0.00 0.00 0.00 35 1006.0
20260505184530 78 192 3.0 8.0 0.00 0.00 0.00 36 1006.1
20260505184045 78 38 3.0 11.0 0.00 0.00 0.00 36 1006.7
20260505183529 78 202 5.0 11.0 0.00 0.00 0.00 36 1006.8
20260505183038 78 223 3.0 10.0 0.00 0.00 0.00 38 1006.6
20260505182523 78 294 5.0 10.0 0.00 0.00 0.00 37 1006.5
20260505182057 78 177 4.0 10.0 0.00 0.00 0.00 37 1006.7
20260505181526 78 288 3.0 10.0 0.00 0.00 0.00 37 1006.5
20260505181101 79 80 5.0 10.0 0.00 0.00 0.00 35 1006.7
20260505180523 78 320 4.0 13.0 0.00 0.00 0.00 37 1006.6
20260505180036 78 127 4.0 13.0 0.00 0.00 0.00 37 1007.0
20260505175550 79 337 3.0 11.0 0.00 0.00 0.00 35 1006.9
20260505175035 78 129 4.0 11.0 0.00 0.00 0.00 36 1006.8
20260505174527 78 288 2.0 11.0 0.00 0.00 0.00 37 1006.7
20260505174032 78 155 3.0 8.0 0.00 0.00 0.00 38 1006.9
20260505173525 78 160 4.0 8.0 0.00 0.00 0.00 36 1006.9
20260505173039 78 13 2.0 8.0 0.00 0.00 0.00 39 1007.0
20260505172523 78 164 3.0 7.0 0.00 0.00 0.00 39 1007.1
20260505172036 78 169 2.0 10.0 0.00 0.00 0.00 38 1007.1
20260505171547 78 355 4.0 10.0 0.00 0.00 0.00 37 1007.0
20260505171030 78 131 4.0 6.0 0.00 0.00 0.00 38 1007.0
20260505170543 78 5 3.0 7.0 0.00 0.00 0.00 39 1007.1
20260505170025 77 50 2.0 16.0 0.00 0.00 0.00 40 1007.2
20260505165532 77 123 6.0 16.0 0.00 0.00 0.00 41 1007.3
20260505165025 77 211 2.0 6.0 0.00 0.00 0.00 41 1007.2
20260505164530 76 142 2.0 6.0 0.00 0.00 0.00 41 1007.3
20260505164044 76 336 2.0 10.0 0.00 0.00 0.00 43 1007.4
20260505163558 76 200 4.0 7.0 0.00 0.00 0.00 41 1007.5
20260505163050 76 304 1.0 8.0 0.00 0.00 0.00 42 1007.6
20260505162541 76 316 2.0 8.0 0.00 0.00 0.00 41 1007.7
20260505162026 76 211 2.0 8.0 0.00 0.00 0.00 41 1007.7
20260505161538 76 227 4.0 8.0 0.00 0.00 0.00 42 1007.7
20260505161023 76 213 4.0 9.0 0.00 0.00 0.00 42 1007.8
20260505160536 76 200 4.0 9.0 0.00 0.00 0.00 42 1007.9
20260505153049 74 195 4.0 8.0 0.00 0.00 0.00 45 1008.5
20260505152533 74 197 3.0 5.0 0.00 0.00 0.00 44 1008.5
20260505152025 73 355 1.0 7.0 0.00 0.00 0.00 47 1008.5
20260505151531 73 173 4.0 7.0 0.00 0.00 0.00 45 1008.5
20260505151024 73 207 4.0 7.0 0.00 0.00 0.00 46 1008.6
20260505150558 72 76 1.0 10.0 0.00 0.00 0.00 48 1008.5
20260505140540 70 221 3.0 10.0 0.00 0.00 0.00 49 1009.2
20260505125028 63 231 2.0 5.0 0.00 0.00 0.00 59 1009.5
20260505124543 62 303 2.0 4.0 0.00 0.00 0.00 61 1009.4
20260505124043 62 121 1.0 4.0 0.00 0.00 0.00 61 1009.4
20260505123535 61 254 0.0 4.0 0.00 0.00 0.00 61 1009.4
20260505123027 61 109 1.0 3.0 0.00 0.00 0.00 62 1009.4
20260505122531 60 234 0.0 4.0 0.00 0.00 0.00 63 1009.4
20260505122025 60 107 2.0 5.0 0.00 0.00 0.00 61 1009.4
20260505121538 60 296 1.0 8.0 0.00 0.00 0.00 62 1009.5
20260505121023 60 132 2.0 5.0 0.00 0.00 0.00 61 1009.5
20260505120536 60 213 2.0 4.0 0.00 0.00 0.00 62 1009.4
20260505120028 59 179 1.0 5.0 0.00 0.00 0.00 63 1009.5
20260505115543 59 205 3.0 5.0 0.00 0.00 0.00 62 1009.4
20260505115035 59 178 1.0 3.0 0.00 0.00 0.00 64 1009.4
20260505114549 59 218 1.0 3.0 0.00 0.00 0.00 65 1009.5
20260505114036 58 304 1.0 3.0 0.00 0.00 0.00 65 1009.4
20260505113550 58 194 1.0 5.0 0.00 0.00 0.00 64 1009.5
20260505113041 58 146 1.0 5.0 0.00 0.00 0.00 65 1009.4
20260505112527 58 150 3.0 5.0 0.00 0.00 0.00 64 1009.3
20260505112039 57 180 2.0 4.0 0.00 0.00 0.00 66 1009.3
20260505111522 56 130 1.0 3.0 0.00 0.00 0.00 68 1009.1
20260505111035 56 227 0.0 3.0 0.00 0.00 0.00 67 1009.2
20260505110549 56 289 0.0 3.0 0.00 0.00 0.00 67 1009.2
20260505102037 53 220 1.0 3.0 0.00 0.00 0.00 71 1008.6
20260505101522 53 225 1.0 2.0 0.00 0.00 0.00 72 1008.5
20260505101034 52 216 0.0 6.0 0.00 0.00 0.00 72 1008.5
20260505100548 52 215 4.0 6.0 0.00 0.00 0.00 72 1008.4
20260505100034 52 232 0.0 4.0 0.00 0.00 0.00 73 1008.3
20260505095547 51 291 1.0 4.0 0.00 0.00 0.00 74 1008.3
20260505095059 51 256 1.0 2.0 0.00 0.00 0.00 75 1008.3
20260505094522 50 216 0.0 3.0 0.00 0.00 0.00 75 1008.2
20260505094035 49 216 2.0 3.0 0.00 0.00 0.00 77 1008.2
20260505093522 49 200 2.0 3.0 0.00 0.00 0.00 78 1008.2
20260505093035 48 217 2.0 3.0 0.00 0.00 0.00 78 1008.1
20260505092522 48 246 1.0 2.0 0.00 0.00 0.00 78 1008.2
20260505092036 49 248 0.0 2.0 0.00 0.00 0.00 77 1008.3
20260505091530 49 248 0.0 2.0 0.00 0.00 0.00 77 1008.3
20260505091033 49 248 1.0 2.0 0.00 0.00 0.00 77 1008.3
20260505090527 49 248 0.0 2.0 0.00 0.00 0.00 76 1008.3
20260505090042 50 248 1.0 3.0 0.00 0.00 0.00 76 1008.3
20260505085526 50 250 0.0 2.0 0.00 0.00 0.00 77 1008.4
20260505085101 50 252 1.0 2.0 0.00 0.00 0.00 76 1008.6
20260505084535 50 230 0.0 3.0 0.00 0.00 0.00 76 1008.6
20260505084041 50 328 1.0 3.0 0.00 0.00 0.00 76 1008.7
20260505083533 50 224 1.0 3.0 0.00 0.00 0.00 76 1008.7
20260505083046 49 227 1.0 3.0 0.00 0.00 0.00 76 1008.7
20260505082531 49 236 0.0 2.0 0.00 0.00 0.00 78 1008.8
20260505082046 48 236 0.0 3.0 0.00 0.00 0.00 77 1008.8
20260505081532 48 235 1.0 2.0 0.00 0.00 0.00 78 1008.7
20260505081046 48 239 0.0 2.0 0.00 0.00 0.00 78 1008.7
20260505080540 48 239 1.0 2.0 0.00 0.00 0.00 78 1008.7
20260505080025 48 239 0.0 3.0 0.00 0.00 0.00 79 1008.7
20260505075534 47 243 1.0 3.0 0.00 0.00 0.00 79 1008.7
20260505075048 47 244 1.0 4.0 0.00 0.00 0.00 79 1008.7
20260505074541 47 234 1.0 4.0 0.00 0.00 0.00 80 1008.6
20260505074026 47 281 0.0 2.0 0.00 0.00 0.00 80 1008.7
20260505073540 47 281 1.0 3.0 0.00 0.00 0.00 80 1008.6
20260505073025 47 282 1.0 3.0 0.00 0.00 0.00 80 1008.6
20260505072534 47 305 1.0 3.0 0.00 0.00 0.00 80 1008.6
20260505072047 47 305 0.0 3.0 0.00 0.00 0.00 80 1008.7
20260505071533 47 223 1.0 3.0 0.00 0.00 0.00 80 1008.6
20260505071046 47 224 1.0 3.0 0.00 0.00 0.00 80 1008.7
20260505070532 47 223 0.0 2.0 0.00 0.00 0.00 79 1008.7
20260505070047 47 223 0.0 1.0 0.00 0.00 0.00 79 1008.7
20260505065523 47 223 0.0 2.0 0.00 0.00 0.00 79 1008.8
20260505065028 47 223 1.0 2.0 0.00 0.00 0.00 79 1008.9
20260505064539 47 204 1.0 2.0 0.00 0.00 0.00 79 1008.9
20260505064024 47 184 0.0 2.0 0.00 0.00 0.00 79 1008.8
20260505063538 47 184 0.0 2.0 0.00 0.00 0.00 79 1008.8
20260505063031 47 184 0.0 2.0 0.00 0.00 0.00 79 1008.9
20260505062606 47 180 0.0 2.0 0.00 0.00 0.00 79 1008.9
20260505062030 47 180 0.0 1.0 0.00 0.00 0.00 80 1008.9
20260505061544 46 180 0.0 1.0 0.00 0.00 0.00 80 1008.9
20260505061038 46 180 0.0 1.0 0.00 0.00 0.00 80 1008.9
20260505060523 46 180 0.0 2.0 0.00 0.00 0.00 81 1009.0
20260505060037 45 180 0.0 2.0 0.00 0.00 0.00 82 1009.1
20260505055530 45 173 0.0 2.0 0.00 0.00 0.00 82 1009.0
20260505055035 45 173 0.0 2.0 0.00 0.00 0.00 82 1009.1
20260505054529 45 173 0.0 3.0 0.00 0.00 0.00 83 1009.1
20260505054030 44 172 0.0 3.0 0.00 0.00 0.00 83 1009.1
20260505053524 44 168 0.0 2.0 0.00 0.00 0.00 83 1009.3
20260505053039 44 160 0.0 2.0 0.00 0.00 0.00 82 1009.2
20260505052524 45 160 0.0 2.0 0.00 0.00 0.00 82 1009.3
20260505052038 45 149 0.0 2.0 0.00 0.00 0.00 82 1009.4
20260505051526 45 149 0.0 1.0 0.00 0.00 0.00 81 1009.5
20260505051040 45 148 0.0 1.0 0.00 0.00 0.00 81 1009.4
20260505050536 45 148 0.0 1.0 0.00 0.00 0.00 81 1009.5
20260505041528 46 148 0.0 2.0 0.00 0.00 0.00 77 1009.5
20260505041022 47 148 1.0 2.0 0.00 0.00 0.00 77 1009.4
20260505040537 47 148 0.0 1.0 0.00 0.00 0.00 77 1009.4
20260505040022 47 147 0.0 1.0 0.00 0.00 0.00 76 1009.4
20260505035537 47 147 0.0 1.0 0.00 0.00 0.00 76 1009.4
20260505035023 47 147 0.0 0.0 0.00 0.00 0.00 75 1009.5
20260505034532 48 148 0.0 2.0 0.00 0.00 0.00 75 1009.4
20260505034047 48 148 0.0 2.0 0.00 0.00 0.00 75 1009.4
20260505033553 48 146 0.0 1.0 0.00 0.00 0.00 74 1009.3
20260505033027 48 146 0.0 2.0 0.00 0.00 0.00 74 1009.3
20260505032542 49 146 0.0 2.0 0.00 0.00 0.00 74 1009.4
20260505032028 49 146 0.0 1.0 0.00 0.00 0.00 73 1009.4
20260505031543 49 146 0.0 1.0 0.00 0.00 0.00 73 1009.3
20260505031029 50 146 0.0 1.0 0.00 0.00 0.00 72 1009.4
20260505030543 50 146 0.0 1.0 0.00 0.00 0.00 71 1009.4
20260505030057 50 146 0.0 2.0 0.00 0.00 0.00 71 1009.3
20260505025531 50 146 1.0 2.0 0.00 0.00 0.00 71 1009.3
20260505025038 50 146 1.0 2.0 0.00 0.00 0.00 71 1009.2
20260505024531 50 146 1.0 2.0 0.00 0.00 0.00 70 1009.2
20260505024046 51 146 0.0 1.0 0.00 0.00 0.00 70 1009.2
20260505023553 51 146 0.0 1.0 0.00 0.00 0.00 69 1009.2
20260505023027 51 146 0.0 0.0 0.00 0.00 0.00 68 1009.1
20260505022602 52 146 0.0 1.0 0.00 0.00 0.00 68 1009.2
20260505022028 52 146 0.0 0.0 0.00 0.00 0.00 68 1009.2
20260505021539 52 146 0.0 0.0 0.00 0.00 0.00 66 1009.2
20260505021054 53 146 0.0 1.0 0.00 0.00 0.00 66 1009.3
20260505020548 53 146 0.0 1.0 0.00 0.00 0.00 65 1009.1
20260505020033 53 146 0.0 1.0 0.00 0.00 0.00 65 1009.1
20260505015548 54 146 1.0 1.0 0.00 0.00 0.00 64 1009.0
20260505015102 54 146 0.0 0.0 0.00 0.00 0.00 63 1008.9
20260505014527 54 146 0.0 2.0 0.00 0.00 0.00 62 1009.0
20260505014101 55 146 0.0 2.0 0.00 0.00 0.00 61 1009.0
20260505013535 55 138 0.0 1.0 0.00 0.00 0.00 61 1009.0
20260505013041 56 138 0.0 2.0 0.00 0.00 0.00 60 1008.8
20260505012536 56 138 0.0 2.0 0.00 0.00 0.00 60 1008.8
20260505012023 57 142 0.0 1.0 0.00 0.00 0.00 58 1008.7
20260505011538 57 142 0.0 1.0 0.00 0.00 0.00 58 1008.7
20260505011025 57 142 0.0 4.0 0.00 0.00 0.00 58 1008.7
20260505010540 57 142 1.0 4.0 0.00 0.00 0.00 57 1008.7
20260505010033 57 158 1.0 3.0 0.00 0.00 0.00 57 1008.5
20260505005608 56 159 1.0 3.0 0.00 0.00 0.00 58 1008.4
20260505005033 55 152 2.0 4.0 0.00 0.00 0.00 57 1008.3
20260505004526 55 173 1.0 2.0 0.00 0.00 0.00 58 1008.1
20260505004030 56 262 0.0 2.0 0.00 0.00 0.00 56 1008.0
20260505003558 56 263 0.0 2.0 0.00 0.00 0.00 56 1007.8
20260505003050 57 263 0.0 2.0 0.00 0.00 0.00 54 1007.7
20260505002542 57 263 0.0 2.0 0.00 0.00 0.00 52 1007.7
20260505002027 58 263 0.0 2.0 0.00 0.00 0.00 50 1007.6